TITAN 3C TRANSTAGE DEB, 27792

Orbit data source: Space-Track

TITAN 3C TRANSTAGE DEB, 27792 is space debris in HEO originally from a launch on Tue, 21 Dec 1965 UTC launched from the Air Force Eastern Test Range (AFETR). Debris objects in space refer to the collection of defunct objects orbiting the Earth. Examples of debris include non-operational satellites, rocket bodies, and fragments generated from explosions, collisions, or faulty payload assembly.

Loading next visibility...
Identifier
27792, 1965-108BG
Orbit
HEO
Country
Flag of USUS
Related business
Manufacturer
Unknown
Mission
Spacecraft
Bus & Motor
Unknown
Mass
Unknown
Launch date (UTC)
1965-12-21 (60 years ago)
Launch vehicle
Unknown
Launch site
Air Force Eastern Test Range (AFETR)
Object type
Payload
Rocket body
Debris
Shape & HBR
Unknown shape, 0.2 m
Radar Cross Section
Medium (>0.1 m² and <1 m²)

Expand to show TLE details & history
Last TLE update: 3 days ago

TLE from 3 days ago
0 TITAN 3C TRANSTAGE DEB
1 27792U 65108BG  26130.41216361 -.00000097  00000-0  84595-5 0  9996
2 27792  26.2093 161.2199 6774940  25.8305 356.3667  2.78291526265629
Epoch: 2026-05-10T09:53Z
TLE epoch observation values (Epoch: 2026-05-10T09:53:30.935Z)
Latitude
0.00013°
Longitude
144.62906°
Altitude
793.444 km
Speed
9.617 km/s
True Right ascension
10h 44m 53s
True Declination
0° 00' 00"
Sunlit
Object was in daylight at epoch
Visualization orbit readout
Latitude
Unknown
Longitude
Unknown
Altitude
Unknown
Speed
Unknown
Apparent Right ascension
Unknown
Apparent Declination
Unknown
Sunlit
N/A
Visualization observer readout
Local Sidereal Time
03:56:14
Azimuth
Unknown
Elevation
Unknown
Doppler factor
Unknown
Orbital elements
Apogee altitude
29,442.862 km
Perigee altitude
508.616 km
Semi-major axis
21,353.876 km
Eccentricity
0.67749
Inclination
26.2093°
RAAN
161.2199°
Arg. of periapsis
25.8305°
True anomaly
334.96628°
Mean anomaly
356.3667°
Eccentric anomaly
348.88052°
Mean motion
0.69555 °/min
Orbital period
517.58 mins
BSTAR
0.0000084595
Loading maneuver chart data...
Computing Atmospheric mass density...

Documentation

Showing up to 5 results
|